GOES 1 AKM, 20962

Orbit data source: Space-Track

GOES 1 AKM, 20962 is space debris in GEO originally from a launch on Thu, 16 Oct 1975 UTC launched from the Air Force Eastern Test Range (AFETR). Debris objects in space refer to the collection of defunct objects orbiting the Earth. Examples of debris include non-operational satellites, rocket bodies, and fragments generated from explosions, collisions, or faulty payload assembly.

Loading next visibility...
Identifier
20962, 1975-100F
Orbit
GEO
Country
Flag of USUS
Related business
Manufacturer
Aerojet
Mission
Spacecraft
Bus & Motor
SVM, SVM-5
Mass
Wet unknown, 31 kg dry
Launch date (UTC)
1975-10-16 (50 years ago)
Launch vehicle
Unknown
Launch site
Air Force Eastern Test Range (AFETR)
Object type
Payload
Rocket body
Debris
Shape & HBR
Unknown
Radar Cross Section
Medium (>0.1 m² and <1 m²)

Expand to show TLE details & history
Last TLE update: 2 days ago

TLE from 2 days ago
0 GOES 1 AKM
1 20962U 75100F   25240.25092207  .00000027  00000-0  00000-0 0  9991
2 20962   3.0413 260.5969 0269834  79.6580 283.0869  1.01931715133164
Epoch: 2025-08-28T06:01Z
TLE epoch observation values (Epoch: 2025-08-28T06:01:19.666Z)
Latitude
0.00001°
Longitude
-166.74705°
Altitude
35,099.715 km
Speed
3.108 km/s
True Right ascension
17h 21m 12s
True Declination
0° 00' 00"
Sunlit
Object was in daylight at epoch
Visualization orbit readout
Latitude
Unknown
Longitude
Unknown
Altitude
Unknown
Speed
Unknown
Apparent Right ascension
Unknown
Apparent Declination
Unknown
Sunlit
N/A
Visualization observer readout
Local Sidereal Time
18:00:51
Azimuth
Unknown
Elevation
Unknown
Doppler factor
Unknown
Orbital elements
Apogee altitude
36,454.052 km
Perigee altitude
34,203.27 km
Semi-major axis
41,706.798 km
Eccentricity
0.02698
Inclination
3.0413°
RAAN
260.5969°
Arg. of periapsis
79.658°
True anomaly
280.05339°
Mean anomaly
283.0869°
Eccentric anomaly
281.57229°
Mean motion
0.25482 °/min
Orbital period
1,412.76 mins
BSTAR
0
Loading maneuver chart data...
Computing Atmospheric mass density...
Loading historical data...
Loading historical data...
Loading historical data...
Loading historical data...
Loading historical data...
Loading historical data...
Loading historical data...

Documentation

Showing up to 5 results
|